Theta_e
355 353 349 338 324 324 316 318 325 322 324 331 332 328 326 330 324 320 345 347 350 352 358 360 365 362 362 362 362 362 361 361 360 362 363 364 364 364 362 364 363 363 362 361 360 360 360 360 359
354 351 343 334 321 314 315 323 321 326 329 333 332 330 328 326 336 339 341 349 351 353 356 359 363 363 361 361 362 361 362 362 362 361 362 364 364 364 364 364 364 362 360 361 361 359 359 359 359
354 348 330 326 321 314 315 322 325 328 331 330 329 333 329 328 337 341 348 352 352 353 355 356 361 360 360 360 360 361 361 361 362 361 361 364 364 363 363 363 363 363 362 362 360 359 359 358 358
342 336 332 321 317 319 319 322 327 327 330 332 331 326 334 341 340 345 351 352 353 353 355 360 362 361 360 360 359 359 361 362 361 360 360 363 364 363 364 363 363 363 363 362 361 359 358 357 355
345 335 321 317 317 321 324 328 329 326 328 329 329 326 329 339 345 349 349 350 350 352 356 357 362 360 359 359 359 358 361 361 362 360 361 362 363 363 363 363 363 362 360 359 359 358 356 356 355
329 331 317 312 316 322 326 330 329 328 328 328 328 327 330 342 345 346 349 349 351 351 355 357 360 360 361 359 357 355 360 361 360 361 362 362 363 362 363 363 363 360 358 358 358 357 357 355 357
325 323 315 316 316 320 323 332 328 327 325 326 332 325 332 339 344 347 349 351 351 355 356 356 356 357 359 358 357 355 358 360 360 360 361 361 361 362 362 362 361 359 359 358 358 357 356 355 357
333 326 317 318 316 317 327 332 333 327 326 334 334 325 328 338 345 346 348 349 350 351 355 357 356 358 359 356 348 356 359 360 361 362 362 363 362 362 363 364 361 359 358 358 356 356 356 360 361
336 323 316 316 317 321 328 326 331 334 328 331 334 332 336 342 344 343 344 345 346 349 352 355 356 358 360 359 353 361 360 360 361 362 362 361 363 360 360 360 360 361 360 358 358 357 358 359 356
329 323 319 324 324 324 329 329 330 328 327 328 331 336 339 341 341 339 339 340 341 344 350 355 356 356 359 360 363 362 360 362 363 360 360 363 362 362 359 360 361 360 360 357 357 358 360 354 354
328 322 327 327 326 331 328 328 331 327 323 328 328 332 336 338 339 339 340 341 341 344 347 353 353 355 357 358 356 359 356 358 357 356 361 361 360 359 359 360 360 360 357 357 354 354 357 354 349
324 329 331 328 330 329 327 330 328 326 327 333 333 336 336 336 337 338 339 340 341 343 346 350 351 353 356 356 348 350 348 352 355 359 361 359 356 357 357 356 357 359 357 354 357 356 359 359 356
322 326 331 331 330 329 330 327 328 327 332 335 336 336 334 336 337 339 341 341 342 341 344 347 351 352 355 355 348 346 349 349 353 354 356 353 356 355 355 355 355 356 358 356 359 360 359 359 359
329 330 328 329 330 330 325 326 328 330 333 334 334 334 335 335 336 338 339 339 340 341 343 346 348 351 352 351 347 345 346 351 351 351 354 354 354 356 354 354 353 358 358 355 359 360 360 360 359
329 324 327 326 327 326 330 323 323 330 333 330 332 334 334 335 337 337 339 339 340 342 344 345 346 348 350 350 345 347 348 350 348 350 348 349 352 357 356 354 357 358 354 356 361 360 361 359 357
323 321 316 325 328 328 326 316 327 332 331 330 331 333 333 334 335 338 339 339 340 342 344 345 342 345 347 349 346 344 344 346 346 351 348 349 352 355 357 356 355 356 356 359 357 358 358 355 356
318 309 313 316 327 326 324 319 326 331 330 328 331 332 333 334 336 337 338 339 340 342 344 344 343 346 346 349 346 347 349 349 348 350 352 354 350 353 353 354 355 355 356 355 353 357 358 352 352
306 307 309 311 322 325 322 321 324 329 329 327 329 331 332 333 335 338 339 339 341 342 344 346 344 346 347 347 347 347 347 347 349 351 354 355 353 352 352 350 351 354 356 357 354 357 354 352 351
309 306 306 311 323 321 321 320 323 328 329 328 330 331 331 332 336 339 340 340 340 342 343 345 344 345 345 343 342 342 342 345 347 350 353 353 353 349 354 349 349 352 354 359 355 359 355 350 351
305 304 305 314 322 321 320 320 324 325 327 329 330 331 331 332 335 335 338 339 340 342 345 346 345 345 345 343 344 345 345 346 348 351 354 354 353 351 350 350 348 352 353 361 359 361 355 354 353
305 305 306 307 319 320 320 317 321 326 327 329 331 332 333 333 333 335 336 338 340 342 344 346 347 346 345 345 344 347 348 351 348 350 351 351 352 349 349 348 349 350 353 356 360 359 357 351 353
303 307 307 310 311 307 320 306 315 322 323 325 327 328 330 333 335 335 337 338 339 342 346 348 349 347 346 345 343 347 344 343 347 351 351 351 351 349 349 350 348 349 354 359 359 359 357 352 349
304 308 308 311 312 313 312 310 314 318 318 322 326 327 329 332 334 334 337 339 341 344 345 347 350 349 348 347 346 345 348 348 351 350 355 354 352 351 351 352 347 348 357 360 359 361 357 352 352
312 316 314 315 313 304 308 309 306 313 319 321 326 328 329 331 334 336 336 341 342 345 346 347 348 350 350 349 347 347 348 349 347 350 350 351 351 349 352 353 353 351 356 360 359 360 360 358 357
306 308 299 298 301 297 308 307 307 315 320 322 324 328 330 331 333 335 335 335 340 342 341 346 343 340 348 346 348 348 349 351 352 352 350 352 350 350 352 355 355 354 355 359 361 361 360 359 357
303 304 297 291 292 296 311 304 308 318 322 324 325 326 330 330 332 335 337 337 339 341 344 345 345 343 342 343 349 351 351 348 350 352 351 351 351 352 356 356 356 357 358 359 361 358 357 359 358
301 299 304 299 301 299 302 310 311 315 318 322 323 325 326 330 331 334 337 339 340 341 343 345 342 340 345 347 350 351 352 351 350 352 353 351 356 354 356 357 357 358 359 360 361 360 359 359 359
304 305 298 300 293 292 297 300 301 308 312 319 323 324 327 330 332 334 336 339 340 342 343 345 343 344 348 348 349 349 351 352 352 352 352 353 354 357 356 357 357 358 359 359 360 358 361 360 357
301 301 300 301 299 295 293 298 311 313 317 319 324 326 328 330 332 334 337 339 342 343 344 344 345 346 347 346 349 349 349 351 352 352 353 353 355 356 356 357 357 357 357 359 359 359 360 357 359
304 304 304 299 298 298 298 299 312 316 320 321 326 328 330 331 333 335 337 339 341 342 344 345 346 346 347 348 350 349 349 351 350 351 353 355 355 356 356 357 357 357 357 359 358 356 356 357 356
Wind_Speed
10 7 2 2 2 1 3 5 3 6 5 2 9 2 3 4 1 2 4 3 12 11 8 9 10 11 11 10 9 12 10 11 10 11 11 12 12 12 13 14 13 12 13 12 11 11 11 10 10
7 4 1 1 1 3 3 5 7 6 7 10 7 4 3 3 3 7 9 7 12 13 9 10 8 10 11 9 9 10 10 11 11 11 11 12 12 12 13 13 13 12 13 12 12 11 11 10 10
4 2 2 1 2 3 5 4 10 8 3 3 4 5 2 3 3 12 6 13 13 12 10 9 10 9 9 9 9 9 9 10 11 11 11 11 12 11 13 13 11 12 11 11 12 10 10 9 7
2 1 1 1 9 3 4 1 7 6 6 5 6 5 4 2 7 4 12 13 13 10 10 10 12 10 8 8 7 7 9 9 9 10 11 12 12 12 13 12 12 12 11 11 11 9 7 5 3
1 1 3 3 2 4 1 2 4 3 4 4 2 4 5 3 6 12 13 11 13 11 10 9 11 10 8 6 6 7 8 8 9 11 12 13 13 12 13 12 11 12 10 10 10 7 5 3 2
1 0 2 4 2 2 1 3 2 3 4 5 5 6 4 5 11 12 12 11 10 10 9 9 10 9 8 6 9 6 6 8 8 10 11 13 13 12 12 12 11 9 9 9 7 5 4 3 3
2 2 3 5 3 1 0 2 3 5 5 4 7 4 3 7 9 11 11 10 9 9 8 8 7 8 8 10 15 5 5 7 8 10 11 11 13 11 11 11 9 8 8 7 5 4 3 2 2
2 2 4 2 4 3 2 1 4 5 4 10 2 3 6 10 12 12 10 10 8 7 7 7 8 8 8 11 14 9 8 7 9 11 11 11 11 11 9 10 8 8 7 5 4 3 2 4 5
1 1 3 5 4 3 2 5 0 2 10 3 3 2 8 16 14 13 10 9 8 6 7 6 6 6 7 9 11 11 8 9 10 10 11 8 6 8 9 9 9 8 7 4 2 2 3 5 7
1 1 4 1 5 6 5 6 5 5 8 4 6 11 16 15 14 13 12 11 10 9 8 7 6 6 7 5 8 7 5 5 5 7 6 5 6 5 6 8 8 7 5 2 1 2 4 1 3
2 2 3 1 4 11 5 4 3 7 6 3 10 16 16 14 12 11 10 10 11 10 7 6 6 6 7 6 5 4 3 4 3 6 7 6 5 4 4 4 4 3 3 1 4 3 1 4 2
1 4 2 4 5 5 5 3 5 3 3 3 14 15 15 15 13 12 11 9 9 9 8 7 6 5 6 6 3 5 3 4 3 5 7 5 4 4 3 3 3 2 1 3 3 1 1 2 4
2 3 5 6 7 5 4 3 1 5 2 8 15 15 13 13 12 10 9 8 9 10 9 8 7 6 5 6 4 3 4 4 4 5 5 4 4 4 3 3 2 1 2 3 2 2 2 2 2
3 4 5 4 5 4 5 5 2 3 3 12 15 15 13 13 12 10 10 10 10 10 10 9 8 7 6 6 5 3 2 2 3 3 3 4 3 4 3 3 3 2 1 3 2 2 1 1 1
5 4 2 3 5 4 8 5 8 2 10 13 15 13 12 12 12 13 11 11 11 10 10 10 9 8 6 8 5 4 5 4 2 2 3 3 2 4 3 3 2 1 1 4 0 1 1 1 2
2 1 2 4 5 3 6 4 10 6 12 14 13 13 14 15 15 12 10 10 10 10 11 10 8 9 8 7 4 3 1 2 1 2 2 3 3 3 3 2 2 0 2 2 0 1 1 2 3
3 3 3 3 6 3 10 4 8 10 11 11 12 13 14 13 14 12 12 11 11 12 12 11 10 10 10 8 5 6 6 4 2 2 4 4 3 3 3 2 2 1 2 1 2 3 2 3 3
2 3 4 6 5 8 9 14 3 12 14 12 12 13 14 15 17 16 15 13 13 12 12 12 11 9 10 8 5 4 4 5 4 4 3 2 2 4 4 3 3 2 2 0 1 2 4 4 2
2 4 9 5 5 7 11 13 10 13 15 16 14 14 15 16 15 14 14 14 13 12 12 13 13 11 8 8 8 6 7 6 6 6 5 4 4 5 4 3 4 3 2 1 2 1 3 3 2
5 8 10 3 5 7 4 12 11 12 19 18 17 17 18 17 12 13 15 16 16 15 14 13 13 13 10 8 7 5 6 6 6 5 6 6 6 6 5 4 4 4 2 2 2 2 2 1 1
9 11 8 8 4 4 5 9 10 12 16 16 19 19 17 18 16 13 15 17 15 16 16 15 14 13 11 10 7 4 6 3 5 5 5 6 7 7 6 4 3 4 3 3 4 3 3 2 2
16 8 13 6 5 4 4 5 5 8 14 18 19 20 18 17 15 14 15 16 17 17 15 14 14 14 12 12 10 11 8 8 7 7 6 5 8 7 6 5 5 6 4 3 4 3 2 3 3
9 3 3 5 5 3 6 5 3 3 9 19 21 22 22 21 18 18 18 18 17 16 16 14 14 14 14 13 12 11 9 7 5 6 7 7 7 7 6 5 4 7 5 4 4 4 4 3 2
9 9 8 5 2 5 2 7 11 5 6 4 12 22 22 21 20 18 17 15 15 14 14 14 14 13 14 14 14 14 12 9 7 6 6 5 6 6 8 7 5 5 5 6 4 4 4 4 3
7 6 2 3 4 6 1 6 11 14 11 12 8 15 20 21 19 18 18 17 16 17 13 13 11 8 12 12 14 15 15 12 10 9 7 6 6 6 8 8 7 7 7 6 4 4 4 5 4
10 11 6 7 6 7 2 6 6 4 4 6 8 8 14 19 19 20 20 17 16 17 17 16 13 9 10 12 16 14 15 10 10 9 7 6 6 7 8 9 8 9 8 7 6 5 5 5 6
7 8 5 3 2 4 3 7 14 7 5 9 9 7 12 17 19 21 20 19 16 16 18 19 15 13 15 18 15 15 13 14 12 12 9 7 7 6 7 8 9 9 9 8 7 6 7 6 7
6 10 5 2 5 9 5 6 10 16 11 7 7 9 9 14 17 16 17 16 15 14 15 18 18 24 19 17 16 14 15 14 13 11 11 10 9 9 8 8 9 9 10 11 10 8 9 8 7
6 5 1 2 3 8 9 5 6 11 7 6 8 9 9 11 15 15 15 15 15 13 15 18 18 17 18 13 14 13 14 15 13 12 11 12 11 10 10 10 10 10 11 11 10 11 10 11 9
3 5 9 8 6 2 4 9 3 6 6 5 8 7 8 9 12 13 13 13 13 14 14 16 17 17 18 17 14 15 14 13 14 14 14 12 13 12 11 10 10 10 10 11 12 12 12 12 11
Wind_Direction
150 139 136 170 194 90 55 34 319 108 129 18 153 205 202 16 308 36 129 152 134 134 140 155 138 130 121 122 126 125 122 119 124 123 125 119 119 115 116 107 109 109 107 107 103 99 97 98 94
146 151 132 128 91 112 93 8 50 62 103 113 97 83 71 79 59 114 139 148 146 131 156 155 134 133 131 141 127 126 129 129 136 140 133 125 122 118 110 108 109 115 116 115 105 105 108 101 95
150 336 284 83 96 112 114 69 111 97 99 142 113 58 52 40 60 140 114 141 140 136 139 150 142 132 136 144 135 140 143 140 143 149 138 130 131 123 116 113 120 115 113 106 109 104 98 93 90
190 185 99 53 114 120 113 127 134 116 92 69 99 78 101 307 145 139 138 143 134 134 145 151 144 140 133 138 149 140 143 149 140 145 140 140 134 128 116 121 115 119 115 116 108 101 97 100 98
94 256 71 78 79 121 95 115 143 146 114 116 120 113 96 51 108 132 137 145 142 146 143 145 142 141 145 154 138 130 135 144 140 139 141 141 132 128 120 124 125 118 116 112 106 114 114 95 48
98 323 82 145 142 323 112 40 107 98 84 112 106 111 106 116 132 137 141 145 146 144 142 146 139 144 140 141 106 54 142 153 150 141 137 139 131 126 127 129 113 113 112 108 111 127 137 117 55
82 71 73 129 126 181 302 307 76 108 118 98 127 104 101 148 139 143 141 138 138 141 143 148 145 140 129 121 108 180 178 159 133 135 128 126 123 126 133 116 113 111 106 110 126 145 158 110 79
100 112 124 203 194 154 275 92 115 107 82 122 107 142 162 165 153 143 142 135 129 147 143 140 157 137 128 124 126 206 170 154 132 123 128 124 128 127 111 112 110 106 107 121 148 167 165 81 66
161 63 128 172 192 148 224 149 348 103 141 109 62 127 128 142 149 147 148 148 142 147 152 147 145 133 126 143 160 191 159 147 133 128 123 107 133 126 126 93 112 101 100 114 142 120 79 76 60
334 8 20 116 171 170 155 146 141 131 151 88 92 104 128 148 159 162 170 165 167 163 161 152 139 143 142 147 144 127 109 124 133 121 110 104 115 114 114 110 98 99 83 83 103 61 75 36 24
97 22 2 55 152 150 135 121 127 150 184 154 159 145 150 160 171 176 183 180 177 174 173 163 153 159 160 151 139 127 118 121 109 112 121 125 125 119 137 133 126 122 111 200 189 136 100 90 89
314 356 7 128 136 138 140 122 137 133 66 140 146 155 158 172 179 186 185 180 175 174 169 161 150 158 164 139 112 120 118 130 148 134 129 136 140 143 135 140 115 140 163 231 253 134 85 151 155
244 7 53 116 156 167 156 137 268 203 243 125 143 159 175 179 183 194 191 184 180 182 177 176 169 165 152 131 116 118 142 139 145 151 133 124 143 145 155 130 147 168 262 285 291 265 205 233 236
95 89 94 110 162 152 184 212 224 201 205 161 162 174 183 189 191 187 196 186 188 179 182 175 182 171 157 143 135 116 124 141 138 142 142 136 169 140 146 146 161 207 306 289 284 289 195 225 222
134 104 123 146 165 155 155 181 220 173 174 165 174 186 189 197 200 203 202 194 189 185 173 181 181 178 176 157 138 150 169 160 146 142 143 127 150 132 143 161 185 293 350 284 195 126 164 252 191
107 102 266 177 200 151 205 242 215 180 178 184 188 193 196 201 212 209 205 207 195 188 181 180 182 180 182 173 147 143 196 169 174 159 149 119 133 130 175 176 217 305 305 303 279 56 42 51 134
23 292 249 279 202 196 212 269 205 183 201 189 200 202 206 207 217 217 212 205 198 193 181 181 188 183 180 175 170 178 185 198 197 192 160 189 135 160 189 175 218 262 300 331 317 50 19 75 96
172 286 261 270 182 211 215 246 200 199 208 212 218 213 222 215 220 215 212 208 201 189 190 179 183 187 179 170 172 185 191 211 214 221 205 194 196 197 187 169 215 247 252 329 93 62 65 63 50
162 279 293 302 174 203 239 262 243 208 214 224 219 216 217 224 230 228 213 204 198 192 189 187 182 184 182 179 174 192 201 207 210 217 207 209 214 209 200 191 202 210 243 307 171 142 78 103 93
235 280 281 288 159 211 294 278 261 209 218 219 223 217 220 226 227 230 215 202 198 192 192 188 187 184 190 191 184 185 188 207 211 211 213 205 208 209 211 191 203 195 201 224 206 199 152 105 166
246 256 264 286 139 217 303 282 256 232 223 218 233 234 226 226 222 225 210 201 197 194 195 191 183 186 191 196 189 171 173 184 198 216 216 204 201 193 205 197 221 217 225 199 198 194 224 192 140
265 244 255 241 222 283 212 294 268 252 242 222 221 230 228 215 216 215 210 198 197 200 197 191 185 183 185 188 199 197 196 195 203 209 204 186 189 192 194 209 221 222 236 201 196 192 216 228 220
261 318 281 208 216 290 189 258 262 267 260 238 224 221 222 223 213 201 205 202 201 188 194 196 192 182 184 188 208 202 209 215 207 208 197 191 180 196 201 214 209 201 211 199 204 178 201 214 260
141 103 90 100 174 247 275 244 285 236 234 265 222 220 214 209 208 201 206 195 199 193 188 187 195 194 188 191 202 216 206 210 214 213 208 198 188 188 202 204 208 214 220 219 213 227 205 221 231
194 183 201 203 204 276 3 230 256 280 260 258 259 222 214 207 206 196 192 194 192 190 185 182 171 187 193 195 204 216 220 210 206 224 218 199 190 200 211 204 203 219 225 227 221 230 239 227 239
192 222 236 260 252 283 162 241 257 265 312 284 262 247 207 207 203 201 195 194 196 195 188 181 168 180 185 201 211 211 216 217 216 219 231 224 216 210 203 209 212 216 229 230 231 242 246 232 232
155 205 277 190 112 261 256 263 275 261 254 263 247 215 199 201 201 200 198 199 197 192 189 182 180 206 208 213 213 213 213 217 217 219 223 229 227 221 215 210 212 220 221 223 229 231 234 234 235
226 143 189 218 238 265 224 272 259 279 284 265 224 223 208 201 196 201 197 200 200 195 189 191 186 205 211 212 213 214 215 213 218 218 219 225 235 235 225 220 222 224 231 219 214 224 234 221 226
149 201 175 184 250 265 266 256 227 258 289 256 234 211 206 197 195 197 201 198 198 196 189 196 206 211 210 211 211 214 216 215 213 218 221 224 229 230 233 231 232 229 233 234 223 225 230 235 230
207 237 200 246 207 254 288 262 218 262 274 225 217 213 211 199 193 195 196 195 195 197 191 200 203 211 216 214 215 215 215 218 219 222 221 217 222 224 231 228 229 230 235 234 221 227 234 227 234